ARG1602 SABE-SAZM

Flight info

Callsign ARG1602
Flight time 0h 43m
Altitude 23000
Route PTA8 GBE W29 VOTRA VOTRA1U
Aircraft B738/M-SDE2E3FGHIRWXY/LB1

Departure

Time 2026-04-23 22:15
Airport Aeroparque Jorge Newbery (SABE)

Arrival

Time 2026-04-23 22:58
Airport Ástor Piazzola International Airport (SAZM)
Time Latitude Longitude Altitude Speed Heading
2026-04-23 21:46 -34.55854 -58.41174 26 ft 0 kts 44°
2026-04-23 22:05 -34.55855 -58.41175 26 ft 2 kts 44°
2026-04-23 22:06 -34.55865 -58.41187 26 ft 2 kts 47°
2026-04-23 22:06 -34.55873 -58.41197 26 ft 1 kts 26°
2026-04-23 22:06 -34.55879 -58.41200 26 ft 1 kts 337°
2026-04-23 22:06 -34.55885 -58.41197 26 ft 1 kts 319°
2026-04-23 22:07 -34.55889 -58.41192 26 ft 1 kts 314°
2026-04-23 22:07 -34.55893 -58.41187 26 ft 0 kts 313°
2026-04-23 22:10 -34.55873 -58.41213 26 ft 0 kts 313°
2026-04-23 22:10 -34.55866 -58.41268 30 ft 11 kts 239°
2026-04-23 22:10 -34.55901 -58.41346 26 ft 12 kts 287°
2026-04-23 22:11 -34.55867 -58.41434 26 ft 11 kts 296°
2026-04-23 22:11 -34.55831 -58.41518 27 ft 11 kts 296°
2026-04-23 22:11 -34.55798 -58.41600 28 ft 11 kts 296°
2026-04-23 22:11 -34.55765 -58.41680 26 ft 10 kts 296°
2026-04-23 22:12 -34.55732 -58.41756 27 ft 10 kts 302°
2026-04-23 22:12 -34.55695 -58.41826 27 ft 10 kts 303°
2026-04-23 22:12 -34.55658 -58.41895 28 ft 10 kts 303°
2026-04-23 22:12 -34.55621 -58.41960 26 ft 9 kts 304°
2026-04-23 22:13 -34.55583 -58.42024 27 ft 9 kts 307°
2026-04-23 22:13 -34.55546 -58.42084 26 ft 9 kts 307°
2026-04-23 22:13 -34.55490 -58.42175 26 ft 19 kts 307°
2026-04-23 22:13 -34.55412 -58.42301 29 ft 18 kts 307°
2026-04-23 22:14 -34.55361 -58.42438 26 ft 18 kts 274°
2026-04-23 22:14 -34.55398 -58.42506 28 ft 2 kts 168°
2026-04-23 22:14 -34.55471 -58.42391 27 ft 49 kts 125°
2026-04-23 22:14 -34.55815 -58.41770 26 ft 126 kts 124°
2026-04-23 22:15 -34.56388 -58.40706 317 ft 161 kts 122°
2026-04-23 22:15 -34.57036 -58.39583 1240 ft 163 kts 123°
2026-04-23 22:15 -34.57343 -58.38261 1953 ft 174 kts 85°
2026-04-23 22:15 -34.56971 -58.36728 2298 ft 207 kts 62°
2026-04-23 22:16 -34.55914 -58.35405 2543 ft 233 kts 33°
2026-04-23 22:16 -34.54489 -58.34318 2891 ft 254 kts 33°
2026-04-23 22:16 -34.53061 -58.32951 3405 ft 268 kts 54°
2026-04-23 22:16 -34.52397 -58.30886 4258 ft 269 kts 84°
2026-04-23 22:17 -34.52532 -58.28621 4893 ft 272 kts 105°
2026-04-23 22:17 -34.53060 -58.26414 5151 ft 273 kts 111°
2026-04-23 22:17 -34.54028 -58.24453 5186 ft 271 kts 130°
2026-04-23 22:17 -34.55334 -58.22815 5179 ft 270 kts 144°
2026-04-23 22:18 -34.56957 -58.21725 5166 ft 266 kts 169°
2026-04-23 22:18 -34.58779 -58.21731 5252 ft 263 kts 190°
2026-04-23 22:18 -34.60604 -58.22095 5838 ft 268 kts 191°
2026-04-23 22:18 -34.62445 -58.22482 6772 ft 269 kts 192°
2026-04-23 22:19 -34.64300 -58.22877 7647 ft 272 kts 192°
2026-04-23 22:19 -34.66178 -58.23278 8480 ft 276 kts 193°
2026-04-23 22:19 -34.68081 -58.23683 9330 ft 279 kts 193°
2026-04-23 22:19 -34.69984 -58.24087 10143 ft 283 kts 193°
2026-04-23 22:20 -34.71957 -58.24507 10753 ft 295 kts 194°
2026-04-23 22:20 -34.74006 -58.24942 11398 ft 302 kts 194°
2026-04-23 22:20 -34.76092 -58.25383 12163 ft 306 kts 194°
2026-04-23 22:20 -34.78200 -58.25827 12945 ft 309 kts 194°
2026-04-23 22:21 -34.80333 -58.26276 13750 ft 313 kts 194°
2026-04-23 22:21 -34.82485 -58.26730 14464 ft 316 kts 194°
2026-04-23 22:21 -34.84676 -58.27192 15147 ft 321 kts 195°
2026-04-23 22:21 -34.86890 -58.27660 15817 ft 325 kts 195°
2026-04-23 22:22 -34.89139 -58.28135 16488 ft 330 kts 195°
2026-04-23 22:22 -34.91388 -58.28611 17153 ft 334 kts 195°
2026-04-23 22:22 -34.93700 -58.29100 17815 ft 339 kts 196°
2026-04-23 22:22 -34.96008 -58.29589 18462 ft 343 kts 196°
2026-04-23 22:23 -34.98380 -58.30091 19036 ft 347 kts 197°
2026-04-23 22:23 -35.00771 -58.30596 19650 ft 350 kts 197°
2026-04-23 22:23 -35.03174 -58.31104 20281 ft 352 kts 197°
2026-04-23 22:23 -35.05600 -58.31618 20880 ft 355 kts 198°
2026-04-23 22:24 -35.08047 -58.32137 21468 ft 358 kts 198°
2026-04-23 22:24 -35.10515 -58.32661 22059 ft 361 kts 198°
2026-04-23 22:24 -35.12998 -58.33190 22649 ft 364 kts 199°
2026-04-23 22:24 -35.15498 -58.33725 23130 ft 368 kts 199°
2026-04-23 22:25 -35.18057 -58.34274 23146 ft 380 kts 198°
2026-04-23 22:25 -35.20749 -58.34482 23163 ft 406 kts 186°
2026-04-23 22:25 -35.23633 -58.34131 23181 ft 424 kts 181°
2026-04-23 22:25 -35.26610 -58.33642 23159 ft 438 kts 180°
2026-04-23 22:26 -35.29660 -58.33104 23166 ft 449 kts 179°
2026-04-23 22:26 -35.30708 -58.32916 23166 ft 452 kts 179°
2026-04-23 22:26 -35.33037 -58.32500 23168 ft 458 kts 179°
2026-04-23 22:26 -35.36207 -58.31937 23154 ft 459 kts 179°
2026-04-23 22:27 -35.39363 -58.31383 23148 ft 457 kts 180°
2026-04-23 22:27 -35.42507 -58.30841 23143 ft 456 kts 180°
2026-04-23 22:27 -35.45654 -58.30307 23142 ft 455 kts 180°
2026-04-23 22:27 -35.48757 -58.29787 23143 ft 455 kts 180°
2026-04-23 22:28 -35.51900 -58.29262 23151 ft 455 kts 180°
2026-04-23 22:28 -35.55037 -58.28740 23146 ft 456 kts 180°
2026-04-23 22:28 -35.58183 -58.28217 23143 ft 456 kts 180°
2026-04-23 22:28 -35.61330 -58.27692 23143 ft 457 kts 180°
2026-04-23 22:29 -35.64485 -58.27166 23147 ft 457 kts 180°
2026-04-23 22:29 -35.67636 -58.26641 23144 ft 457 kts 180°
2026-04-23 22:29 -35.70795 -58.26113 23142 ft 458 kts 180°
2026-04-23 22:29 -35.73951 -58.25585 23143 ft 458 kts 180°
2026-04-23 22:30 -35.77113 -58.25054 23139 ft 458 kts 180°
2026-04-23 22:30 -35.80270 -58.24524 23138 ft 458 kts 180°
2026-04-23 22:30 -35.83435 -58.23991 23137 ft 458 kts 180°
2026-04-23 22:30 -35.86590 -58.23460 23138 ft 458 kts 180°
2026-04-23 22:31 -35.89762 -58.22926 23140 ft 458 kts 180°
2026-04-23 22:31 -35.92919 -58.22394 23137 ft 458 kts 180°
2026-04-23 22:31 -35.96079 -58.21860 23139 ft 458 kts 180°
2026-04-23 22:31 -35.99239 -58.21327 23135 ft 458 kts 180°
2026-04-23 22:32 -36.02395 -58.20794 23136 ft 458 kts 180°
2026-04-23 22:32 -36.05552 -58.20260 23132 ft 458 kts 180°
2026-04-23 22:32 -36.08715 -58.19724 23139 ft 458 kts 180°
2026-04-23 22:32 -36.11872 -58.19189 23135 ft 458 kts 180°
2026-04-23 22:33 -36.15031 -58.18645 23135 ft 458 kts 180°
2026-04-23 22:33 -36.18190 -58.18101 23137 ft 459 kts 180°
2026-04-23 22:33 -36.21353 -58.17559 23137 ft 459 kts 180°
2026-04-23 22:33 -36.24478 -58.17030 23130 ft 459 kts 180°
2026-04-23 22:34 -36.27641 -58.16466 23129 ft 461 kts 177°
2026-04-23 22:34 -36.30770 -58.15424 23121 ft 472 kts 166°
2026-04-23 22:34 -36.33817 -58.13900 23137 ft 473 kts 164°
2026-04-23 22:34 -36.36868 -58.12344 23129 ft 473 kts 164°
2026-04-23 22:35 -36.39910 -58.10792 23128 ft 473 kts 164°
2026-04-23 22:35 -36.42955 -58.09250 23128 ft 473 kts 164°
2026-04-23 22:35 -36.46000 -58.07718 23131 ft 472 kts 165°
2026-04-23 22:35 -36.49051 -58.06191 23129 ft 472 kts 165°
2026-04-23 22:36 -36.51069 -58.05183 23128 ft 472 kts 165°
2026-04-23 22:36 -36.55152 -58.03146 23123 ft 472 kts 165°
2026-04-23 22:36 -36.58198 -58.01634 23124 ft 471 kts 165°
2026-04-23 22:36 -36.61245 -58.00124 23124 ft 471 kts 165°
2026-04-23 22:37 -36.64274 -57.98618 23113 ft 465 kts 165°
2026-04-23 22:37 -36.67226 -57.97136 23102 ft 449 kts 165°
2026-04-23 22:37 -36.70111 -57.95685 23117 ft 445 kts 165°
2026-04-23 22:37 -36.72981 -57.94248 23131 ft 446 kts 165°
2026-04-23 22:38 -36.75875 -57.92802 23034 ft 448 kts 165°
2026-04-23 22:38 -36.78770 -57.91354 22593 ft 445 kts 165°
2026-04-23 22:38 -36.81590 -57.89936 22117 ft 441 kts 165°
2026-04-23 22:38 -36.84416 -57.88513 21618 ft 436 kts 165°
2026-04-23 22:39 -36.87217 -57.87101 21114 ft 432 kts 165°
2026-04-23 22:39 -36.89985 -57.85706 20635 ft 428 kts 165°
2026-04-23 22:39 -36.92735 -57.84319 20144 ft 424 kts 165°
2026-04-23 22:39 -36.95469 -57.82941 19659 ft 420 kts 165°
2026-04-23 22:40 -36.98171 -57.81577 19178 ft 417 kts 165°
2026-04-23 22:40 -37.00849 -57.80225 18688 ft 414 kts 165°
2026-04-23 22:40 -37.06167 -57.77537 17650 ft 409 kts 165°
2026-04-23 22:41 -37.08791 -57.76208 17148 ft 405 kts 165°
2026-04-23 22:41 -37.11391 -57.74890 16666 ft 401 kts 165°
2026-04-23 22:41 -37.13927 -57.73604 16204 ft 397 kts 165°
2026-04-23 22:41 -37.16477 -57.72310 15738 ft 393 kts 165°
2026-04-23 22:42 -37.19000 -57.71029 15280 ft 389 kts 165°
2026-04-23 22:42 -37.21496 -57.69760 14823 ft 385 kts 165°
2026-04-23 22:42 -37.23972 -57.68501 14371 ft 382 kts 165°
2026-04-23 22:42 -37.26424 -57.67254 13917 ft 379 kts 165°
2026-04-23 22:43 -37.28858 -57.66015 13416 ft 376 kts 165°
2026-04-23 22:43 -37.31273 -57.64785 12942 ft 372 kts 165°
2026-04-23 22:43 -37.33658 -57.63568 12477 ft 368 kts 165°
2026-04-23 22:43 -37.36018 -57.62363 12034 ft 364 kts 165°
2026-04-23 22:44 -37.38350 -57.61172 11595 ft 360 kts 165°
2026-04-23 22:44 -37.40666 -57.59989 11156 ft 357 kts 165°
2026-04-23 22:44 -37.42948 -57.58821 10871 ft 349 kts 165°
2026-04-23 22:44 -37.45154 -57.57687 10732 ft 337 kts 165°
2026-04-23 22:45 -37.47266 -57.56601 10595 ft 326 kts 165°
2026-04-23 22:45 -37.49331 -57.55539 10457 ft 316 kts 165°
2026-04-23 22:45 -37.51346 -57.54504 10331 ft 306 kts 166°
2026-04-23 22:45 -37.53290 -57.53505 10202 ft 297 kts 166°
2026-04-23 22:46 -37.55181 -57.52534 10075 ft 289 kts 166°
2026-04-23 22:46 -37.57041 -57.51581 9781 ft 287 kts 166°
2026-04-23 22:46 -37.58882 -57.50638 9503 ft 284 kts 166°
2026-04-23 22:46 -37.60707 -57.49702 9227 ft 281 kts 166°
2026-04-23 22:47 -37.62514 -57.48775 8960 ft 279 kts 166°
2026-04-23 22:47 -37.64281 -57.47867 8695 ft 277 kts 166°
2026-04-23 22:47 -37.66055 -57.46953 8428 ft 274 kts 165°
2026-04-23 22:47 -37.67811 -57.46040 8166 ft 272 kts 165°
2026-04-23 22:48 -37.69564 -57.45131 7908 ft 270 kts 165°
2026-04-23 22:48 -37.71295 -57.44237 7649 ft 268 kts 165°
2026-04-23 22:48 -37.72439 -57.43647 7478 ft 267 kts 165°
2026-04-23 22:48 -37.74151 -57.42763 7220 ft 264 kts 165°
2026-04-23 22:49 -37.75824 -57.41896 6980 ft 255 kts 165°
2026-04-23 22:49 -37.77979 -57.40780 6658 ft 245 kts 165°
2026-04-23 22:49 -37.79544 -57.39972 6436 ft 243 kts 165°
2026-04-23 22:49 -37.81116 -57.39163 6176 ft 246 kts 165°
2026-04-23 22:50 -37.82729 -57.38334 5925 ft 256 kts 165°
2026-04-23 22:50 -37.83825 -57.37769 5737 ft 256 kts 165°
2026-04-23 22:50 -37.86027 -57.36628 5098 ft 257 kts 164°
2026-04-23 22:50 -37.87139 -57.36053 4618 ft 264 kts 163°
2026-04-23 22:51 -37.89414 -57.34875 3664 ft 265 kts 162°
2026-04-23 22:51 -37.91054 -57.34018 3392 ft 244 kts 163°
2026-04-23 22:51 -37.92088 -57.33476 3277 ft 230 kts 163°
2026-04-23 22:51 -37.93527 -57.32867 3087 ft 205 kts 182°
2026-04-23 22:52 -37.94806 -57.33134 2998 ft 180 kts 204°
2026-04-23 22:52 -37.95888 -57.33875 2992 ft 175 kts 220°
2026-04-23 22:52 -37.96885 -57.34760 3003 ft 175 kts 219°
2026-04-23 22:52 -37.97879 -57.35627 2989 ft 170 kts 219°
2026-04-23 22:53 -37.98907 -57.36527 2216 ft 191 kts 219°
2026-04-23 22:53 -37.99978 -57.37459 1975 ft 178 kts 219°
2026-04-23 22:53 -38.00958 -57.38307 1832 ft 165 kts 220°
2026-04-23 22:53 -38.01662 -57.39307 1690 ft 148 kts 256°
2026-04-23 22:54 -38.01678 -57.40547 1675 ft 140 kts 298°
2026-04-23 22:54 -38.01122 -57.41550 1674 ft 139 kts 291°
2026-04-23 22:54 -38.00781 -57.42705 1685 ft 141 kts 297°
2026-04-23 22:54 -38.00267 -57.43752 1687 ft 141 kts 299°
2026-04-23 22:55 -37.99755 -57.44820 1693 ft 142 kts 300°
2026-04-23 22:55 -37.99229 -57.45882 1698 ft 142 kts 300°
2026-04-23 22:55 -37.98697 -57.46940 1686 ft 143 kts 301°
2026-04-23 22:55 -37.98162 -57.47998 1604 ft 143 kts 300°
2026-04-23 22:56 -37.97631 -57.49043 1438 ft 139 kts 301°
2026-04-23 22:56 -37.97108 -57.50071 1251 ft 138 kts 301°
2026-04-23 22:56 -37.96590 -57.51090 1075 ft 140 kts 301°
2026-04-23 22:56 -37.96073 -57.52109 856 ft 136 kts 302°
2026-04-23 22:57 -37.95559 -57.53129 705 ft 138 kts 304°
2026-04-23 22:57 -37.95029 -57.54163 496 ft 140 kts 303°
2026-04-23 22:57 -37.94505 -57.55205 306 ft 140 kts 303°
2026-04-23 22:57 -37.93971 -57.56248 103 ft 138 kts 301°
2026-04-23 22:58 -37.93483 -57.57204 51 ft 114 kts 303°
2026-04-23 22:58 -37.93171 -57.57818 52 ft 15 kts 302°
2026-04-23 22:58 -37.93147 -57.57864 50 ft 7 kts 302°
2026-04-23 22:58 -37.93131 -57.57927 53 ft 8 kts 268°
2026-04-23 22:59 -37.93162 -57.57982 51 ft 9 kts 217°
2026-04-23 22:59 -37.93194 -57.58010 53 ft 0 kts 213°
2026-04-23 23:01 -37.93236 -57.58040 53 ft 9 kts 194°
2026-04-23 23:01 -37.93295 -57.58025 53 ft 9 kts 165°
2026-04-23 23:01 -37.93353 -57.58026 53 ft 8 kts 207°
2026-04-23 23:02 -37.93352 -57.58058 53 ft 2 kts 320°
2026-04-23 23:02 -37.93341 -57.58065 51 ft 2 kts 334°
2026-04-23 23:02 -37.93335 -57.58069 53 ft 0 kts 334°